Regional Weather Roundup
Issued by NWS

Home | Current Version | Previous Version | Graphics & Text | Print | Product List | Glossary On
Versions: 1 2 3 4 5 6 7 8 9 10 11 12 13 14 15 16 17 18 19 20 21 22 23 24 25 26 27 28 29 30 31 32 33 34 35 36 37 38 39 40 41 42 43 44 45 46 47 48 49 50
000
ASUS45 KSLC 282110
RWRUT

UTAH REGIONAL WEATHER ROUNDUP
NATIONAL WEATHER SERVICE SALT LAKE CITY UT
200 PM MST SUN DEC 28 2014

UTZ001>011-023>025-282200-

NORTHERN UTAH

CITY           SKY/WX    TMP DP  RH WIND       PRES   REMARKS
BRIGHAM CITY   CLOUDY    32  22  65 S6        30.04F WCI  27
HILL AFB       CLOUDY    28  25  88 S13       30.02S WCI  18
LOGAN          CLOUDY    30  22  72 NE15      30.00F WCI  19
OGDEN          CLOUDY    30  25  81 S10       30.02F WCI  21
PROVO AIRPORT  PTSUNNY   30  18  59 NW12      30.05S WCI  21
SALT LAKE CITY LGT SNOW  29  27  92 SE10      30.06S FOG     WCI  20
VERNAL         PTSUNNY   25  12  58 SE3       29.98F
WENDOVER       CLOUDY    30  27  86 S3        30.06S
HEBER CITY     LGT SNOW  27  21  80 CALM      30.00R
WEST JORDAN    CLOUDY    27  27 100 SE5       30.06F WCI  21

$$

UTZ012>022-026-027-282200-

SOUTHERN/CENTRAL UTAH

CITY           SKY/WX    TMP DP  RH WIND       PRES   REMARKS
BLANDING       SUNNY     29  12  49 S6        30.15F WCI  23
BRYCE CANYON   SUNNY     34  15  46 W14G20    30.02F WCI  25
CEDAR CITY     SUNNY     34  17  50 SW12      30.05F WCI  25
DELTA          CLOUDY    32  20  60 S10       30.02F WCI  24
MILFORD        SUNNY     33  14  45 S14       30.04F WCI  23
MOAB/CYNLANDS  SUNNY     24  17  74 NW9       30.07F WCI  14
PRICE          CLOUDY    27   8  44 SW5       30.01F WCI  22
ST GEORGE      CLOUDY    39   9  28 CALM      30.20F
KANAB          SUNNY     39  12  33 S15       30.13F WCI  31

$$

REGIONAL REPORTS     COLORADO/ARIZONA

CITY           SKY/WX    TMP DP  RH WIND       PRES   REMARKS
CRAIG, CO      CLOUDY    21  16  81 E7        29.94F WCI  12
GRAND JUNCTION PTSUNNY   28  13  53 N3        30.06F
RIFLE          CLOUDY    22  13  68 NE5       30.05F WCI  16
MONTROSE       PTSUNNY   31  11  43 MISG      30.04F
CORTEZ         SUNNY     32   9  38 S3        30.08F
PAGE, AZ       SUNNY     38   9  30 VRB3      30.10F
GRAND CANYON   PTSUNNY   36   3  25 SW10      30.11F WCI  28
KINGMAN        MOSUNNY   46  10  23 SW7       30.16F
FLAGSTAFF      CLOUDY    38   8  29 SW12      30.10F WCI  30

$$

REGIONAL REPORTS    NEVADA/IDAHO/WYOMING

CITY           SKY/WX    TMP DP  RH WIND       PRES   REMARKS
LAS VEGAS, NV  MOSUNNY   46   9  22 SE3       30.15F
ELY            MOSUNNY   37  18  46 W13       30.05F WCI  29
ELKO           LGT SNOW  29  23  78 NW17      30.04R VSB 1   WCI  17
POCATELLO, ID  CLOUDY    28  24  85 SW16      30.01S WCI  16
BURLEY         MOSUNNY   33  24  69 W16G22    29.99S WCI  23
EVANSTON, WY   CLOUDY    22  12  65 W20       29.91S WCI   7
ROCK SPRINGS   CLOUDY    22  16  78 W24G36    29.86R WCI   5

$$



USA.gov is the U.S. government's official web portal to all federal, state and local government web resources and services.